• In Hungary
  • List of Countries
  • For 7 days
  • Water Temperature
  • Satellite Maps
  • Weather Map
  • News
  • Weather Widgets
  • user-avatar
    Login

    Hourly Weather Zarmitan

    Today, 19 October, Friday

    Time Temperature Precipitation Wind Pressure Humidity
    00:00 +9°C° 0 mm 1 mps 745 mmHg 24%
    01:00 +8°C° 0 mm 1 mps 745 mmHg 24%
    02:00 +8°C° 0 mm 1 mps 745 mmHg 25%
    03:00 +7°C° 0 mm 1 mps 745 mmHg 26%
    04:00 +6°C° 0 mm 0 mps 745 mmHg 27%
    05:00 +7°C° 0 mm 0 mps 746 mmHg 27%
    06:00 +7°C° 0 mm 0 mps 746 mmHg 26%
    07:00 +8°C° 0 mm 0 mps 746 mmHg 26%
    08:00 +10°C° 0 mm 0 mps 746 mmHg 23%
    09:00 +12°C° 0 mm 0 mps 746 mmHg 20%
    10:00 +14°C° 0 mm 0 mps 747 mmHg 17%
    11:00 +15°C° 0 mm 1 mps 746 mmHg 17%
    12:00 +16°C° 0 mm 1 mps 746 mmHg 16%
    13:00 +18°C° 0 mm 1 mps 746 mmHg 16%
    14:00 +18°C° 0 mm 1 mps 746 mmHg 16%
    15:00 +17°C° 0 mm 2 mps 746 mmHg 16%
    16:00 +18°C° 0 mm 2 mps 746 mmHg 17%
    17:00 +16°C° 0 mm 2 mps 746 mmHg 19%
    18:00 +14°C° 0 mm 3 mps 746 mmHg 21%
    19:00 +13°C° 0 mm 3 mps 746 mmHg 23%
    20:00 +13°C° 0 mm 3 mps 746 mmHg 25%
    21:00 +12°C° 0 mm 3 mps 746 mmHg 27%
    22:00 +12°C° 0 mm 3 mps 746 mmHg 29%
    23:00 +11°C° 0 mm 3 mps 746 mmHg 30%

    Tomorrow, 20 October, Saturday

    Time Temperature Precipitation Wind Pressure Humidity
    00:00 +11°C° 0 mm 3 mps 746 mmHg 31%
    01:00 +10°C° 0 mm 3 mps 745 mmHg 32%
    02:00 +10°C° 0 mm 3 mps 745 mmHg 32%
    03:00 +10°C° 0 mm 3 mps 745 mmHg 32%
    04:00 +9°C° 0 mm 3 mps 745 mmHg 33%
    05:00 +10°C° 0 mm 3 mps 745 mmHg 32%
    06:00 +10°C° 0 mm 3 mps 745 mmHg 30%
    07:00 +11°C° 0 mm 3 mps 746 mmHg 29%
    08:00 +13°C° 0 mm 3 mps 746 mmHg 25%
    09:00 +16°C° 0 mm 3 mps 746 mmHg 21%
    10:00 +18°C° 0 mm 3 mps 746 mmHg 17%
    11:00 +19°C° 0 mm 2 mps 746 mmHg 16%
    12:00 +20°C° 0 mm 2 mps 745 mmHg 15%
    13:00 +21°C° 0 mm 2 mps 745 mmHg 14%
    14:00 +21°C° 0 mm 2 mps 745 mmHg 14%
    15:00 +21°C° 0 mm 2 mps 744 mmHg 15%
    16:00 +21°C° 0 mm 2 mps 744 mmHg 15%
    17:00 +19°C° 0 mm 3 mps 744 mmHg 18%
    18:00 +18°C° 0 mm 3 mps 744 mmHg 21%
    19:00 +16°C° 0 mm 3 mps 744 mmHg 24%
    20:00 +14°C° 0 mm 3 mps 744 mmHg 25%
    21:00 +14°C° 0 mm 3 mps 744 mmHg 27%
    22:00 +13°C° 0 mm 3 mps 744 mmHg 28%
    23:00 +13°C° 0 mm 3 mps 744 mmHg 29%

    Day after tomorrow, 21 October, Sunday

    Time Temperature Precipitation Wind Pressure Humidity
    00:00 +13°C° 0 mm 3 mps 744 mmHg 29%
    01:00 +12°C° 0 mm 3 mps 744 mmHg 30%
    02:00 +12°C° 0 mm 3 mps 743 mmHg 30%
    03:00 +13°C° 0 mm 2 mps 743 mmHg 31%
    04:00 +12°C° 0 mm 2 mps 743 mmHg 32%
    05:00 +13°C° 0 mm 2 mps 743 mmHg 31%
    06:00 +13°C° 0 mm 2 mps 744 mmHg 31%
    07:00 +14°C° 0 mm 2 mps 744 mmHg 30%
    08:00 +16°C° 0 mm 2 mps 744 mmHg 26%
    09:00 +18°C° 0 mm 2 mps 744 mmHg 22%
    10:00 +20°C° 0 mm 2 mps 744 mmHg 18%
    11:00 +23°C° 0 mm 1 mps 744 mmHg 17%
    12:00 +24°C° 0 mm 1 mps 743 mmHg 15%
    13:00 +25°C° 0 mm 1 mps 743 mmHg 14%
    14:00 +25°C° 0 mm 1 mps 743 mmHg 15%
    15:00 +24°C° 0 mm 1 mps 743 mmHg 15%
    16:00 +22°C° 0 mm 0 mps 742 mmHg 16%
    17:00 +23°C° 0 mm 1 mps 742 mmHg 17%
    18:00 +20°C° 0 mm 2 mps 743 mmHg 19%
    19:00 +18°C° 0 mm 2 mps 743 mmHg 20%
    20:00 +18°C° 0 mm 2 mps 743 mmHg 21%
    21:00 +17°C° 0 mm 2 mps 742 mmHg 22%
    22:00 +17°C° 0 mm 2 mps 742 mmHg 23%
    23:00 +16°C° 0 mm 2 mps 742 mmHg 24%

    22 October, Monday

    Time Temperature Precipitation Wind Pressure Humidity
    00:00 +16°C° 0 mm 2 mps 742 mmHg 24%
    01:00 +15°C° 0 mm 2 mps 742 mmHg 25%
    02:00 +15°C° 0 mm 2 mps 742 mmHg 26%
    03:00 +15°C° 0 mm 2 mps 742 mmHg 26%
    04:00 +15°C° 0 mm 2 mps 741 mmHg 26%
    05:00 +15°C° 0 mm 2 mps 741 mmHg 25%
    06:00 +16°C° 0 mm 2 mps 742 mmHg 25%
    07:00 +16°C° 0 mm 2 mps 742 mmHg 25%
    08:00 +18°C° 0 mm 2 mps 742 mmHg 21%
    09:00 +21°C° 0 mm 2 mps 742 mmHg 18%
    10:00 +24°C° 0 mm 2 mps 742 mmHg 15%
    11:00 +25°C° 0 mm 1 mps 741 mmHg 14%
    12:00 +26°C° 0 mm 1 mps 741 mmHg 13%
    13:00 +25°C° 0 mm 0 mps 741 mmHg 12%
    14:00 +27°C° 0 mm 1 mps 741 mmHg 12%
    15:00 +26°C° 0 mm 1 mps 740 mmHg 13%
    16:00 +26°C° 0 mm 2 mps 740 mmHg 13%
    17:00 +24°C° 0 mm 2 mps 740 mmHg 14%
    18:00 +22°C° 0 mm 3 mps 740 mmHg 16%
    19:00 +20°C° 0 mm 4 mps 740 mmHg 17%
    20:00 +20°C° 0 mm 3 mps 740 mmHg 18%
    21:00 +19°C° 0 mm 3 mps 740 mmHg 19%
    22:00 +18°C° 0 mm 3 mps 740 mmHg 20%
    23:00 +18°C° 0 mm 3 mps 740 mmHg 20%

    23 October, Tuesday

    Time Temperature Precipitation Wind Pressure Humidity
    00:00 +17°C° 0 mm 3 mps 739 mmHg 21%
    01:00 +17°C° 0 mm 2 mps 739 mmHg 21%
    02:00 +17°C° 0 mm 2 mps 739 mmHg 21%
    03:00 +16°C° 0 mm 2 mps 739 mmHg 21%
    04:00 +16°C° 0 mm 2 mps 739 mmHg 22%
    05:00 +16°C° 0 mm 2 mps 739 mmHg 21%
    06:00 +17°C° 0 mm 2 mps 740 mmHg 20%
    07:00 +18°C° 0 mm 2 mps 740 mmHg 20%
    08:00 +20°C° 0 mm 2 mps 740 mmHg 17%
    09:00 +23°C° 0 mm 2 mps 740 mmHg 15%
    10:00 +25°C° 0 mm 2 mps 740 mmHg 13%
    11:00 +25°C° 0 mm 1 mps 740 mmHg 12%
    12:00 +26°C° 0 mm 1 mps 740 mmHg 12%
    13:00 +27°C° 0 mm 1 mps 740 mmHg 11%
    14:00 +27°C° 0 mm 2 mps 740 mmHg 12%
    15:00 +26°C° 0 mm 2 mps 740 mmHg 12%
    16:00 +26°C° 0 mm 3 mps 740 mmHg 13%
    17:00 +25°C° 0 mm 4 mps 740 mmHg 15%
    18:00 +22°C° 0 mm 4 mps 740 mmHg 17%
    19:00 +21°C° 0 mm 4 mps 741 mmHg 18%
    20:00 +21°C° 0 mm 4 mps 741 mmHg 19%
    21:00 +20°C° 0 mm 4 mps 741 mmHg 20%
    22:00 +20°C° 0 mm 4 mps 741 mmHg 21%
    23:00 +19°C° 0 mm 4 mps 741 mmHg 22%

    24 October, Wednesday

    Time Temperature Precipitation Wind Pressure Humidity
    00:00 +19°C° 0 mm 4 mps 741 mmHg 23%
    01:00 +18°C° 0 mm 4 mps 740 mmHg 24%
    02:00 +17°C° 0 mm 4 mps 740 mmHg 25%
    03:00 +17°C° 0 mm 4 mps 741 mmHg 27%
    04:00 +15°C° 0 mm 4 mps 741 mmHg 29%
    05:00 +15°C° 0 mm 4 mps 741 mmHg 29%
    06:00 +15°C° 0 mm 4 mps 741 mmHg 30%
    07:00 +15°C° 0 mm 4 mps 741 mmHg 31%
    08:00 +18°C° 0 mm 3 mps 741 mmHg 27%
    09:00 +20°C° 0 mm 3 mps 742 mmHg 23%
    10:00 +24°C° 0 mm 3 mps 742 mmHg 19%
    11:00 +25°C° 0 mm 2 mps 741 mmHg 17%
    12:00 +26°C° 0 mm 2 mps 741 mmHg 16%
    13:00 +27°C° 0 mm 2 mps 741 mmHg 14%
    14:00 +26°C° 0 mm 2 mps 740 mmHg 14%
    15:00 +26°C° 0 mm 3 mps 740 mmHg 15%
    16:00 +26°C° 0 mm 3 mps 740 mmHg 15%
    17:00 +23°C° 0 mm 4 mps 740 mmHg 17%
    18:00 +22°C° 0 mm 4 mps 740 mmHg 19%
    19:00 +20°C° 0 mm 4 mps 740 mmHg 21%
    20:00 +20°C° 0 mm 4 mps 740 mmHg 22%
    21:00 +19°C° 0 mm 4 mps 740 mmHg 23%
    22:00 +18°C° 0 mm 3 mps 740 mmHg 24%
    23:00 +18°C° 0 mm 3 mps 740 mmHg 25%
    Show more